STARLINK-1778

decayed
NORAD ID: 46683 Int'l Des: 2020-073 Owner: SPXS Country: US Constellation: starlink
LEOCIRCULAR

关于 STARLINK-1778

正在加载描述...

高度历史

Altitude vs Time

uPlot chart will show altitude changes over time

两行轨道根数

1 46683U 20073P 21247.72921106 .73263710 12545-4 24647-2 0 9998
2 46683 53.0328 42.9537 0013401 298.6671 192.0923 16.43343441 49819
Epoch: Sep 4, 2021 • Age: 35177 hours

当前状态

Position data unavailable
发射日期 Oct 18, 2020
运行时间 4.8 years
衰减日期 Sep 4, 2021
类型 internet

技术详情

分类 Payload
质量 260.00 kg
干质量 248.00 kg
总质量 260.00 kg
长度 0.20 m
直径 2.80 m
跨度 9.00 m
形状 Box + pan
制造商 SPXS
平台类型 Starlink
阶段状态 Reentered
所有者/国家 SPXS/US

大型星座

Loading constellations...